Location: Mason Neck State Park
(38.6428°N, 77.1981°W)
Time: 19:00:09
(UTC-04:00)

Daily predictions for brighter satellites

Satellite Brightness Start Highest point End
(mag) Time Altitude Azimuth Time Altitude Azimuth Time Altitude Azimuth
COSMOS 2455 3.2 20:47:35 10° S 20:53:10 42° ESE 20:58:47 10° NE
Envisat 4.1 20:52:15 10° SE 20:56:28 27° ENE 21:00:43 10° N
H-2A R/B 2.9 20:52:31 10° SSE 20:56:28 89° NE 21:00:27 10° NNW
APEX 3.9 20:55:32 10° NNW 20:59:51 89° ENE 21:05:29 10° SSE
Cosmos 1602 Rocket 3.9 20:55:59 10° SSE 21:00:15 46° E 21:04:32 10° NNE
CZ-4 DEB 3.1 20:58:04 10° S 21:01:17 69° WSW 21:04:31 10° NNW
Cosmos 2058 Rocket 3.2 20:57:30 10° N 21:01:53 80° W 21:06:13 10° S
Tsikada Rocket 4.4 20:55:54 10° SSE 21:01:57 46° E 21:07:58 10° NNE
Cosmos 1812 Rocket 4.2 21:08:27 10° N 21:12:33 37° ENE 21:16:35 10° SSE
Cosmos 2285 Rocket 4.5 21:07:39 10° NNW 21:13:55 64° WSW 21:20:10 10° S
YAOGAN 11 4.5 21:13:50 10° S 21:18:09 64° W 21:22:25 10° NNW
Cosmos 1464 Rocket 4.1 21:12:04 10° N 21:18:13 80° W 21:24:23 10° S
deb Chang Zheng 4 3.6 21:18:35 10° NNE 21:23:00 87° E 21:27:21 10° SSW
H-2A R/B 2.0 21:19:48 10° SSE 21:24:03 81° ENE 21:28:26 10° N
Cosmos 2369 Rocket 3.1 21:22:55 10° N 21:28:02 34° ENE 21:32:08 15° ESE
Cosmos 1626 Rocket 3.7 21:27:31 10° S 21:31:57 77° W 21:36:23 10° N
SJ-11-01 4.4 21:27:21 10° S 21:32:00 77° WSW 21:36:42 10° NNW
Cosmos 1666 3.6 21:28:23 10° NNW 21:32:10 50° W 21:35:56 10° S
Cosmos 2228 3.8 21:29:02 10° NNW 21:33:20 53° W 21:37:37 10° S
Lacrosse 4 Rocket 2.0 21:33:06 10° S 21:36:41 32° ESE 21:40:20 10° NE
CZ-2C R/B 2.5 21:35:07 10° SSW 21:37:05 25° W 21:39:04 10° NW
Cosmos 2034 Rocket 4.3 21:32:29 10° N 21:38:51 74° W 21:45:07 10° S
SeaSat 1 2.9 21:38:41 17° SE 21:42:10 47° ENE 21:46:54 10° NNW
GRACE-1 4.5 21:46:17 10° N 21:49:07 58° W 21:51:26 14° SSW
GRACE-2 4.5 21:46:44 10° N 21:49:34 57° W 21:51:51 14° SSW
Cosmos 1238 4.2 21:48:39 12° S 21:51:29 80° W 21:54:31 10° N
Cosmos 1953 Rocket 4.2 21:49:27 22° SE 21:51:44 38° E 21:55:50 10° NNE
Cosmos 1190 Rocket 4.1 21:48:42 10° S 21:53:52 59° ESE 21:59:07 10° NNE
YAOGAN 6 3.2 21:54:35 27° SE 21:56:06 42° ENE 21:59:40 10° N
CZ-4B R/B 3.6 21:51:15 10° NNE 21:56:18 58° E 22:00:41 14° S
H-2A R/B 3.7 21:55:22 14° E 21:57:30 18° ENE 22:00:54 10° NNE
Atlas Centaur 2 3.2 21:54:05 10° WSW 22:01:02 47° S 22:06:34 20° ESE
Cosmos 1515 3.8 21:58:34 12° SSW 22:02:09 75° W 22:06:01 10° N
COSMOS 2406 4.5 22:03:46 21° ESE 22:04:19 21° E 22:08:27 10° NE
ATLAS 3B R/B 2.9 21:58:17 10° SSW 22:05:58 77° ESE 22:13:33 10° NE
SPOT 1/Viking Rocket 3.7 22:03:18 25° SE 22:06:10 58° ENE 22:11:13 10° N
BREEZE-M DEB (TANK) 3.9 22:02:43 10° WSW 22:06:27 34° NW 22:08:28 10° NE
ISS -0.9 22:04:26 10° W 22:07:13 26° NNW 22:10:01 10° NNE
Cosmos 1066 Rocket 4.2 22:02:16 12° S 22:07:29 77° E 22:13:18 10° NNE
Cosmos 676 Rocket 4.3 22:07:50 22° SSE 22:10:58 49° ESE 22:16:06 10° NNE
Meteor 1-22 Rocket 4.3 22:08:39 10° N 22:14:16 64° E 22:17:17 29° SSE
MetOp-A 4.2 22:13:38 23° S 22:17:06 78° WSW 22:22:30 10° NNW
CZ-4 R/B 3.9 22:13:32 10° NNE 22:18:32 65° ESE 22:21:17 26° S
PSLV R/B 3.9 22:17:07 10° W 22:20:37 56° N 22:22:22 26° ENE
Milstar 3 Cent rocket 4.4 22:21:48 10° SW 22:22:38 10° SW 22:23:26 10° SSW
USA 234 3.6 22:19:11 23° ESE 22:23:26 61° NE 22:29:53 10° NW
Cosmos 1953 3.7 22:20:37 10° NNE 22:23:49 23° ENE 22:23:57 23° ENE
Cosmos 1943 Rocket 3.0 22:20:11 10° N 22:25:22 38° ENE 22:27:31 28° ESE
Cosmos 1758 Rocket 3.4 22:23:41 35° S 22:25:28 76° E 22:29:50 10° N
SPOT 5 3.6 22:23:00 19° SSW 22:25:49 41° W 22:29:56 10° NNW
BREEZE M DEB (TANK) 1.8 22:24:18 10° WNW 22:25:59 52° NNW 22:25:59 52° NNW
Cosmos 1943 3.7 22:21:46 10° SW 22:27:21 60° WNW 22:33:00 10° NNE
Terra 2.7 22:31:28 30° E 22:32:33 34° ENE 22:36:50 10° N
Envisat 4.4 22:31:24 13° SSW 22:35:20 33° W 22:39:54 10° NNW
Cosmos 1346 Rocket 3.3 22:34:25 27° SSW 22:36:20 57° W 22:40:13 10° N
DELTA 2 DEB (DPAF) 4.1 22:38:40 50° SE 22:39:44 72° ENE 22:44:14 10° N
Cosmos 407 Rocket 3.8 22:34:32 10° SSW 22:39:45 67° WNW 22:44:57 10° NNE
Cosmos 1842 3.1 22:44:54 71° ESE 22:45:04 72° E 22:48:59 10° NNE
SL-27 R/B 3.2 22:46:06 40° NE 22:46:06 40° NE 22:48:28 10° NNE
USA 238 DEB 3.7 22:43:03 18° SSW 22:48:22 64° ESE 22:55:21 10° NE
USA 238 3.7 22:43:19 19° SSW 22:48:29 63° ESE 22:55:27 10° NE
Meteor 1-21 4.3 22:47:53 27° SSW 22:51:11 78° W 22:57:02 10° N
ATLAS 5 CENTAUR R/B4.423:14:29ESE23:14:29ESE22:49:43SW
Cosmos 1842 Rocket 4.4 22:53:39 10° N 22:57:35 36° ENE 22:57:35 36° ENE
ARGOS 3.5 22:55:38 35° SSW 22:57:45 59° W 23:03:08 10° NNW
Cosmos 1954 Rocket 4.1 22:57:35 31° SSW 23:00:12 77° WNW 23:05:32 10° NNE
Cosmos 1092 Rocket 4.4 23:02:29 42° ESE 23:03:37 46° E 23:09:33 10° NNE
IGS 5A 3.5 23:05:31 67° ENE 23:05:31 67° ENE 23:09:35 10° N
Cosmos 2208 Rocket 4.3 23:02:21 10° N 23:07:25 52° ENE 23:08:05 48° E
Cosmos 1766 4.1 23:06:39 10° NNW 23:10:27 42° W 23:10:50 41° WSW
Cosmos 1758 3.4 23:07:02 10° N 23:10:56 78° NNE 23:10:56 78° NNE
Cosmos 2369 Rocket 3.4 23:07:00 10° NW 23:11:58 32° WSW 23:13:56 25° SW
Meteor 2-5 Rocket 4.4 23:11:50 37° E 23:12:01 37° E 23:17:18 10° NNE
Nadezhda 4 Rocket 3.9 23:11:18 50° SSE 23:13:04 76° E 23:19:24 10° N
Lacrosse 4 Rocket 3.9 23:12:23 10° WSW 23:15:28 20° NW 23:18:34 10° N
Cosmos 2084 3.5 23:11:41 10° NNW 23:15:41 72° NNE 23:15:41 72° NNE
SeaSat 1 4.2 23:18:29 19° SW 23:19:51 21° WSW 23:23:34 10° WNW
Cosmos 1741 Rocket 3.9 23:21:13 71° SSE 23:21:45 81° ESE 23:27:06 10° NNE
NOSS 3-2 (C) 4.4 23:24:06 31° E 23:24:06 31° E 23:28:37 10° NE
Cosmos 1340 4.2 23:34:32 31° NNE 23:34:32 31° NNE 23:36:41 10° NNE
Cosmos 2221 4.0 23:31:30 10° NNE 23:34:25 27° NE 23:34:25 27° NE
Cosmos 1655 Rocket 4.5 23:35:25 42° E 23:35:45 43° E 23:41:36 10° NNE
H-2A R/B 2.4 23:36:00 47° WSW 23:36:29 49° W 23:41:23 10° NNW
Cosmos 1470 3.9 23:33:54 10° N 23:36:33 38° NNE 23:36:33 38° NNE
Cosmos-2242 4.2 23:34:03 10° NNW 23:38:04 35° W 23:38:15 35° W
Cosmos 1850 Rocket 4.1 23:37:40 58° WSW 23:38:32 69° WNW 23:43:44 10° NNE
Cosmos 1805 4.3 23:36:20 10° NNW 23:39:29 41° WNW 23:39:29 41° WNW
Cosmos 1570 Rocket 4.0 23:36:32 10° NNW 23:41:52 70° WSW 23:42:07 69° SW
CZ-4C R/B 2.7 23:45:27 45° ENE 23:45:27 45° ENE 23:49:58 10° NE
Cosmos 1544 4.4 23:43:26 10° N 23:45:56 40° NNW 23:45:56 40° NNW
COSMOS 2406 3.9 23:45:47 31° WSW 23:48:10 51° WNW 23:53:46 10° NNE
Cosmos 1607 4.2 23:45:43 34° SW 23:48:33 67° WNW 23:54:46 10° NNE
Atlas Centaur 2 3.6 23:43:04 10° WSW 23:49:12 38° SSW 23:49:12 38° SSW
Cosmos 2026 Rocket 4.0 23:52:27 61° ESE 23:52:39 61° E 23:58:37 10° NNE
Cosmos 2195 Rocket 4.3 23:53:09 69° SE 23:53:37 72° E 23:59:51 10° NNE
